星链-3908 (STARLINK-3908 )

导读

STARLINK-3908是美国SpaceX公司星链(Starlink)星座中的卫星,于2022年5月6日发射,属于星链星座批量部署的V1.5批次卫星。它运行在近地轨道,搭载激光星间链路,采用Ku/Ka波段通信,氪工质霍尔推进器,具备自主避撞能力,主要为全球提供高速低时延卫星互联网服务,服务覆盖偏远地区、应急通信等场景。按设计其使用寿命约5-7年,寿命末期将主动离轨再入大气层烧毁。

基本信息
目录编号:
52491
目录名称:
STARLINK-3908
国际标识:
2022-049AS
轨道中心:
EARTH
卫星名称:
星链-3908
卫星全名:
星链-3908 (STARLINK-3908 )
卫星状态:
在轨 (已飞行1582 天)
发射日期:
2022-05-06 UTC
国别 :
美国 (US)
星等 :
--
轨道信息
数据来源 国际轨道数据
星历时间: 2026-09-04T06:00:02+0800
9小时前
查看轨道信息
半长轴: 6848.886km
偏心率: 0.0000894
轨道倾角: 53.161°
近地点辐角 54.449°
升交点赤经 327.061°
平近点角 102.712°
近地点: 470.136km
远地点: 471.362km
周期: 94.013分钟
每日圈数: 15.316971
详细信息
固有亮度:
5
最大亮度:
2.5
卫星平台:
Starlink v1.5
覆盖范围:
全球
运营商:
太空探索技术公司
运营商所在国:
美国
制造商(研发单位):
太空探索技术公司
制造商所在国:
美国
使用方式:
暂无
卫星简介
星链(Starlink)计划是由太空探索技术公司(SpaceX)提出的一个巨型低轨卫星互联网星座项目,计划在2019年至2024年间在太空搭建由约1.2万颗卫星组成的“星链”网络,其中1584颗将部署在地球上空550千米处的近地轨道,并从2020年开始工作。该卫星仍在工作。
2D轨道图
3D轨道图
轨道高度分析图
轨道倾角分析图
轨道综合分析图
查看轨道综合分析图
交会数据列表
事件ID 空间交会对象 最接近时刻(TCA) 交会距离 交会风险概率(CRP) 交会风险指数(CRI) 操作
CDM_260906-021604-813105-249121
2026-09-06T
02:16:53+0000
0.086 km
近距离
1.153873E-3 极高风险 0.96
CDM_260830-105605-249106-211021
2026-08-30T
10:56:56+0000
0.727 km
远距离
3.369558E-5 中风险 0.66
CDM_260905-002204-865805-249121
2026-09-05T
00:22:40+0000
0.878 km
远距离
1.694921E-5 中风险 0.6
CDM_260906-105304-813105-249121
2026-09-06T
10:53:40+0000
1.017 km
极远距离
1.595726E-5 中风险 0.59
CDM_260830-105505-249106-390722
2026-08-30T
10:55:53+0000
1.737 km
极远距离
2.568831E-6 低风险 0.43
CDM_260905-104005-249106-942421
2026-09-05T
10:40:40+0000
2.412 km
极远距离
1.839743E-6 低风险 0.4
CDM_260905-072605-249106-862321
2026-09-05T
07:26:51+0000
2.458 km
极远距离
1.705403E-6 低风险 0.4
CDM_260905-112705-249106-942421
2026-09-05T
11:27:40+0000
2.648 km
极远距离
1.563462E-6 低风险 0.39
CDM_260904-005505-249106-885621
2026-09-04T
00:55:47+0000
2.882 km
极远距离
1.084798E-6 低风险 0.36
CDM_260830-183605-249106-792321
2026-08-30T
18:36:46+0000
2.323 km
极远距离
5.641546E-7 极低风险 0.3